Weather History for Ann Arbor, MI

Change the Weather History Date:

Wednesday, June 26, 2013

  Actual Average Record
Temperature  
Mean Temperature 73 °F -  
Max Temperature 82 °F 79 °F 90 °F (2007)
Min Temperature 64 °F 54 °F 43 °F (2012)
Cooling Degree Days 8    
Growing Degree Days 23 (Base 50)    
Moisture  
Dew Point 67 °F    
Average Humidity 85    
Maximum Humidity 100    
Minimum Humidity 62    
Precipitation  
Precipitation 0.40 in - - ()
Sea Level Pressure  
Sea Level Pressure 29.83 in    
Wind  
Wind Speed 5 mph (SW)    
Max Wind Speed 14 mph    
Max Gust Speed 26 mph    
Visibility 8 miles    
Events Rain , Thunderstorm    
Averages and records for this station are not official NWS values.
T = Trace of Precipitation, MM = Missing Value Source: NWS Daily Summary

Daily Weather History Graph

Daily Weather History Graph

Search for Another Location

Airport:

Trip Planner

Search our weather history database for the weather conditions in past years. The results will help you decide how hot, cold, wet, or windy it might be!

Date:

Astronomy

Jun. 26, 2013 Rise Set
Actual Time 6:00 AM EDT 9:15 PM EDT
Civil Twilight 5:25 AM EDT 9:50 PM EDT
Nautical Twilight 4:40 AM EDT 10:34 PM EDT
Astronomical Twilight 3:46 AM EDT 11:28 PM EDT
Moon 11:32 PM EDT (6/26) 9:55 AM EDT (6/26)
Length of Visible Light 16h 24m
Length of Day
15h 15m
Waning Gibbous, 85% of the Moon is Illuminated
Jun 26
Waning Gibbous
Jun 30
Last Quarter
Jul 8
New
Jul 15
First Quarter
Jul 22
Full

Hourly Weather History & Observations

Time (EDT) Temp. Heat Index Dew Point Humidity Pressure Visibility Wind Dir Wind Speed Gust Speed Precip Events Conditions
12:31 AM 68.0 °F - 66.2 °F 94% 29.92 in 4.0 mi SW 9.2 mph - 0.12 in Rain , Thunderstorm Rain
12:42 AM 68.0 °F - 66.2 °F 94% 29.91 in 4.0 mi SW 9.2 mph - 0.15 in Rain , Thunderstorm Rain
12:53 AM 68.0 °F - 66.0 °F 93% 29.88 in 9.0 mi SSW 9.2 mph - 0.16 in Rain , Thunderstorm Light Rain
1:03 AM 68.0 °F - 66.2 °F 94% 29.90 in 10.0 mi WSW 8.1 mph - 0.00 in Rain Light Rain
1:53 AM 66.9 °F - 66.0 °F 97% 29.83 in 10.0 mi SW 6.9 mph - 0.02 in Rain Light Rain
2:53 AM 66.9 °F - 64.9 °F 93% 29.80 in 10.0 mi Calm Calm - 0.01 in   Clear
3:53 AM 66.0 °F - 64.0 °F 93% 29.80 in 10.0 mi Calm Calm - N/A   Clear
4:53 AM 64.0 °F - 63.0 °F 96% 29.83 in 4.0 mi Calm Calm - N/A   Partly Cloudy
5:00 AM 64.4 °F - 64.4 °F 100% 29.85 in 1.8 mi Calm Calm - N/A   Partly Cloudy
5:10 AM 64.4 °F - 64.4 °F 100% 29.85 in 3.0 mi SE 3.5 mph - N/A   Mostly Cloudy
5:42 AM 66.2 °F - 64.4 °F 94% 29.85 in 6.0 mi SSE 4.6 mph - N/A   Mostly Cloudy
5:51 AM 66.2 °F - 64.4 °F 94% 29.85 in 6.0 mi Calm Calm - N/A   Mostly Cloudy
5:53 AM 66.0 °F - 64.9 °F 96% 29.84 in 6.0 mi Calm Calm - N/A   Mostly Cloudy
6:35 AM 66.2 °F - 64.4 °F 94% 29.86 in 5.0 mi Calm Calm - N/A   Scattered Clouds
6:53 AM 66.9 °F - 64.9 °F 93% 29.85 in 8.0 mi Calm Calm - N/A   Clear
7:53 AM 68.0 °F - 66.0 °F 93% 29.85 in 10.0 mi South 3.5 mph - N/A   Clear
8:53 AM 71.1 °F - 66.9 °F 87% 29.87 in 10.0 mi SW 8.1 mph - N/A   Partly Cloudy
9:36 AM 71.6 °F - 66.2 °F 83% 29.88 in 10.0 mi WSW 6.9 mph - N/A   Mostly Cloudy
9:53 AM 72.0 °F - 66.9 °F 84% 29.86 in 10.0 mi Variable 3.5 mph - N/A   Mostly Cloudy
10:42 AM 73.4 °F - 66.2 °F 78% 29.87 in 10.0 mi WSW 3.5 mph - N/A   Scattered Clouds
10:53 AM 73.0 °F - 66.9 °F 81% 29.86 in 10.0 mi WSW 5.8 mph - N/A   Partly Cloudy
11:49 AM 75.2 °F - 68.0 °F 78% 29.88 in 10.0 mi West 8.1 mph - N/A   Mostly Cloudy
11:53 AM 75.9 °F - 69.1 °F 79% 29.87 in 10.0 mi West 10.4 mph 26.5 mph N/A   Mostly Cloudy
12:53 PM 78.1 °F - 69.1 °F 74% 29.86 in 10.0 mi West 9.2 mph - N/A   Mostly Cloudy
1:53 PM 78.1 °F - 68.0 °F 71% 29.82 in 10.0 mi Calm Calm - N/A   Mostly Cloudy
2:17 PM 80.6 °F 83.9 °F 69.8 °F 70% 29.83 in 10.0 mi North 3.5 mph - N/A   Scattered Clouds
2:38 PM 78.8 °F - 69.8 °F 74% 29.83 in 10.0 mi Calm Calm - N/A   Mostly Cloudy
2:53 PM 82.0 °F 85.5 °F 69.1 °F 65% 29.81 in 10.0 mi Variable 4.6 mph - N/A   Mostly Cloudy
3:02 PM 80.6 °F 83.9 °F 69.8 °F 70% 29.82 in 10.0 mi Variable 3.5 mph - N/A   Scattered Clouds
3:53 PM 80.1 °F 82.9 °F 69.1 °F 69% 29.81 in 10.0 mi South 5.8 mph - N/A   Mostly Cloudy
4:53 PM 81.0 °F 84.4 °F 70.0 °F 69% 29.80 in 10.0 mi South 4.6 mph - N/A   Clear
5:53 PM 81.0 °F 84.1 °F 69.1 °F 67% 29.78 in 10.0 mi SE 5.8 mph - N/A   Partly Cloudy
6:53 PM 81.0 °F 83.3 °F 66.9 °F 62% 29.75 in 10.0 mi Variable 3.5 mph - N/A   Clear
7:53 PM 79.0 °F - 68.0 °F 69% 29.76 in 10.0 mi South 4.6 mph - N/A   Clear
8:53 PM 78.1 °F - 68.0 °F 71% 29.76 in 10.0 mi South 4.6 mph - N/A   Clear
9:34 PM 71.6 °F - 68.0 °F 88% 29.80 in 4.0 mi WSW 13.8 mph 26.5 mph 0.09 in Rain Heavy Rain
9:43 PM 71.6 °F - 68.0 °F 88% 29.80 in 6.0 mi SW 8.1 mph - 0.09 in Rain Light Rain
9:53 PM 71.1 °F - 68.0 °F 90% 29.78 in 4.0 mi SW 6.9 mph - 0.13 in Rain Rain
10:01 PM 69.8 °F - 68.0 °F 94% 29.78 in 4.0 mi SW 5.8 mph - 0.02 in Rain Rain
10:53 PM 70.0 °F - 68.0 °F 93% 29.75 in 8.0 mi Calm Calm - 0.07 in Rain Light Rain
11:53 PM 71.1 °F - 69.1 °F 93% 29.75 in 8.0 mi Calm Calm - 0.01 in   Overcast